• In Deutschland
  • Länderverzeichnis
  • Für 7 Tage
  • Wassertemperatur
  • Satellitenkarten
  • Wetterkarte
  • Widgets
  • user-avatar
    Anmelden

    Stündliche Wetter Manama

    Heute, 22 September, Freitag

    Zeit Temperatur Niederschläge Wind Luftdruck Luftfeuchtigkeit
    00:00 +36°C° 0 mm 3 m/S 752 mmHg 59%
    01:00 +35°C° 0 mm 3 m/S 752 mmHg 60%
    02:00 +35°C° 0 mm 2 m/S 752 mmHg 61%
    03:00 +35°C° 0 mm 2 m/S 752 mmHg 62%
    04:00 +34°C° 0 mm 2 m/S 752 mmHg 62%
    05:00 +33°C° 0 mm 1 m/S 753 mmHg 62%
    06:00 +33°C° 0 mm 1 m/S 753 mmHg 61%
    07:00 +34°C° 0 mm 1 m/S 753 mmHg 56%
    08:00 +35°C° 0 mm 1 m/S 753 mmHg 52%
    09:00 +36°C° 0 mm 1 m/S 754 mmHg 47%
    10:00 +37°C° 0 mm 1 m/S 754 mmHg 42%
    11:00 +39°C° 0 mm 1 m/S 753 mmHg 37%
    12:00 +40°C° 0 mm 1 m/S 753 mmHg 33%
    13:00 +40°C° 0 mm 2 m/S 753 mmHg 30%
    14:00 +41°C° 0 mm 2 m/S 753 mmHg 28%
    15:00 +42°C° 0 mm 3 m/S 753 mmHg 25%
    16:00 +40°C° 0 mm 3 m/S 753 mmHg 30%
    17:00 +39°C° 0 mm 3 m/S 753 mmHg 34%
    18:00 +38°C° 0 mm 4 m/S 753 mmHg 39%
    19:00 +37°C° 0 mm 3 m/S 753 mmHg 41%
    20:00 +37°C° 0 mm 3 m/S 754 mmHg 44%
    21:00 +37°C° 0 mm 3 m/S 754 mmHg 47%
    22:00 +36°C° 0 mm 3 m/S 754 mmHg 48%
    23:00 +36°C° 0 mm 3 m/S 754 mmHg 48%

    Morgen, 23 September, Samstag

    Zeit Temperatur Niederschläge Wind Luftdruck Luftfeuchtigkeit
    00:00 +35°C° 0 mm 2 m/S 754 mmHg 48%
    01:00 +35°C° 0 mm 2 m/S 754 mmHg 48%
    02:00 +34°C° 0 mm 2 m/S 754 mmHg 48%
    03:00 +34°C° 0 mm 2 m/S 753 mmHg 47%
    04:00 +32°C° 0 mm 1 m/S 754 mmHg 48%
    05:00 +32°C° 0 mm 1 m/S 754 mmHg 48%
    06:00 +32°C° 0 mm 1 m/S 755 mmHg 48%
    07:00 +33°C° 0 mm 1 m/S 755 mmHg 44%
    08:00 +35°C° 0 mm 1 m/S 755 mmHg 40%
    09:00 +37°C° 0 mm 1 m/S 755 mmHg 37%
    10:00 +39°C° 0 mm 1 m/S 755 mmHg 33%
    11:00 +40°C° 0 mm 2 m/S 755 mmHg 30%
    12:00 +41°C° 0 mm 2 m/S 755 mmHg 27%
    13:00 +41°C° 0 mm 2 m/S 755 mmHg 26%
    14:00 +41°C° 0 mm 2 m/S 754 mmHg 25%
    15:00 +42°C° 0 mm 3 m/S 754 mmHg 24%
    16:00 +40°C° 0 mm 3 m/S 754 mmHg 29%
    17:00 +39°C° 0 mm 3 m/S 754 mmHg 33%
    18:00 +38°C° 0 mm 3 m/S 754 mmHg 37%
    19:00 +37°C° 0 mm 3 m/S 755 mmHg 39%
    20:00 +37°C° 0 mm 2 m/S 755 mmHg 41%
    21:00 +36°C° 0 mm 2 m/S 755 mmHg 43%
    22:00 +35°C° 0 mm 2 m/S 755 mmHg 45%
    23:00 +34°C° 0 mm 1 m/S 755 mmHg 46%

    übermorgen, 24 September, Sonntag

    Zeit Temperatur Niederschläge Wind Luftdruck Luftfeuchtigkeit
    00:00 +31°C° 0 mm 0 m/S 755 mmHg 47%
    01:00 +31°C° 0 mm 0 m/S 755 mmHg 47%
    02:00 +32°C° 0 mm 1 m/S 755 mmHg 46%
    03:00 +32°C° 0 mm 1 m/S 755 mmHg 45%
    04:00 +32°C° 0 mm 1 m/S 755 mmHg 44%
    05:00 +33°C° 0 mm 1 m/S 755 mmHg 42%
    06:00 +34°C° 0 mm 2 m/S 755 mmHg 41%
    07:00 +35°C° 0 mm 2 m/S 756 mmHg 37%
    08:00 +37°C° 0 mm 2 m/S 756 mmHg 33%
    09:00 +37°C° 0 mm 1 m/S 756 mmHg 29%
    10:00 +39°C° 0 mm 1 m/S 756 mmHg 27%
    11:00 +40°C° 0 mm 1 m/S 756 mmHg 25%
    12:00 +41°C° 0 mm 1 m/S 756 mmHg 23%
    13:00 +41°C° 0 mm 1 m/S 755 mmHg 24%
    14:00 +41°C° 0 mm 2 m/S 755 mmHg 24%
    15:00 +41°C° 0 mm 2 m/S 754 mmHg 24%
    16:00 +40°C° 0 mm 3 m/S 754 mmHg 28%
    17:00 +39°C° 0 mm 3 m/S 755 mmHg 31%
    18:00 +38°C° 0 mm 3 m/S 755 mmHg 35%
    19:00 +37°C° 0 mm 3 m/S 755 mmHg 38%
    20:00 +37°C° 0 mm 3 m/S 756 mmHg 41%
    21:00 +36°C° 0 mm 3 m/S 756 mmHg 44%
    22:00 +36°C° 0 mm 3 m/S 756 mmHg 45%
    23:00 +36°C° 0 mm 2 m/S 755 mmHg 46%

    25 September, Montag

    Zeit Temperatur Niederschläge Wind Luftdruck Luftfeuchtigkeit
    00:00 +35°C° 0 mm 2 m/S 755 mmHg 48%
    01:00 +35°C° 0 mm 2 m/S 755 mmHg 48%
    02:00 +33°C° 0 mm 1 m/S 755 mmHg 49%
    03:00 +32°C° 0 mm 1 m/S 755 mmHg 50%
    04:00 +32°C° 0 mm 1 m/S 755 mmHg 49%
    05:00 +32°C° 0 mm 1 m/S 755 mmHg 49%
    06:00 +32°C° 0 mm 1 m/S 756 mmHg 48%
    07:00 +33°C° 0 mm 1 m/S 756 mmHg 44%
    08:00 +35°C° 0 mm 1 m/S 756 mmHg 39%
    09:00 +37°C° 0 mm 1 m/S 757 mmHg 35%
    10:00 +39°C° 0 mm 1 m/S 756 mmHg 32%
    11:00 +39°C° 0 mm 2 m/S 756 mmHg 29%
    12:00 +40°C° 0 mm 2 m/S 755 mmHg 26%
    13:00 +40°C° 0 mm 2 m/S 755 mmHg 26%
    14:00 +40°C° 0 mm 3 m/S 754 mmHg 27%
    15:00 +40°C° 0 mm 3 m/S 754 mmHg 27%
    16:00 +39°C° 0 mm 3 m/S 754 mmHg 32%
    17:00 +38°C° 0 mm 3 m/S 754 mmHg 36%
    18:00 +37°C° 0 mm 3 m/S 755 mmHg 41%
    19:00 +37°C° 0 mm 2 m/S 755 mmHg 43%
    20:00 +36°C° 0 mm 2 m/S 755 mmHg 46%
    21:00 +36°C° 0 mm 2 m/S 755 mmHg 48%
    22:00 +34°C° 0 mm 1 m/S 755 mmHg 50%
    23:00 +33°C° 0 mm 1 m/S 755 mmHg 51%

    26 September, Dienstag

    Zeit Temperatur Niederschläge Wind Luftdruck Luftfeuchtigkeit
    00:00 +30°C° 0 mm 0 m/S 755 mmHg 52%
    01:00 +32°C° 0 mm 1 m/S 754 mmHg 51%
    02:00 +32°C° 0 mm 1 m/S 754 mmHg 50%
    03:00 +32°C° 0 mm 1 m/S 754 mmHg 49%
    04:00 +32°C° 0 mm 1 m/S 754 mmHg 47%
    05:00 +32°C° 0 mm 1 m/S 754 mmHg 46%
    06:00 +32°C° 0 mm 2 m/S 755 mmHg 45%
    07:00 +35°C° 0 mm 2 m/S 755 mmHg 40%
    08:00 +36°C° 0 mm 2 m/S 755 mmHg 35%
    09:00 +38°C° 0 mm 2 m/S 756 mmHg 30%
    10:00 +39°C° 0 mm 2 m/S 755 mmHg 27%
    11:00 +40°C° 0 mm 2 m/S 755 mmHg 24%
    12:00 +41°C° 0 mm 1 m/S 755 mmHg 21%
    13:00 +41°C° 0 mm 2 m/S 754 mmHg 21%
    14:00 +41°C° 0 mm 2 m/S 754 mmHg 21%
    15:00 +42°C° 0 mm 3 m/S 754 mmHg 20%
    16:00 +40°C° 0 mm 3 m/S 754 mmHg 25%
    17:00 +39°C° 0 mm 3 m/S 754 mmHg 29%
    18:00 +38°C° 0 mm 3 m/S 754 mmHg 34%
    19:00 +37°C° 0 mm 3 m/S 755 mmHg 38%
    20:00 +37°C° 0 mm 3 m/S 755 mmHg 42%
    21:00 +36°C° 0 mm 3 m/S 755 mmHg 46%
    22:00 +36°C° 0 mm 3 m/S 755 mmHg 49%
    23:00 +35°C° 0 mm 3 m/S 755 mmHg 51%

    27 September, Mittwoch

    Zeit Temperatur Niederschläge Wind Luftdruck Luftfeuchtigkeit
    00:00 +35°C° 0 mm 3 m/S 755 mmHg 54%
    01:00 +34°C° 0 mm 2 m/S 755 mmHg 55%
    02:00 +34°C° 0 mm 2 m/S 755 mmHg 56%
    03:00 +32°C° 0 mm 1 m/S 755 mmHg 57%
    04:00 +32°C° 0 mm 1 m/S 755 mmHg 57%
    05:00 +32°C° 0 mm 1 m/S 756 mmHg 57%
    06:00 +29°C° 0 mm 0 m/S 756 mmHg 56%
    07:00 +33°C° 0 mm 1 m/S 756 mmHg 52%
    08:00 +34°C° 0 mm 1 m/S 757 mmHg 47%
    09:00 +36°C° 0 mm 1 m/S 757 mmHg 43%
    10:00 +37°C° 0 mm 1 m/S 757 mmHg 39%
    11:00 +39°C° 0 mm 1 m/S 756 mmHg 36%
    12:00 +40°C° 0 mm 1 m/S 756 mmHg 32%
    13:00 +40°C° 0 mm 2 m/S 756 mmHg 32%
    14:00 +40°C° 0 mm 3 m/S 755 mmHg 32%
    15:00 +40°C° 0 mm 3 m/S 755 mmHg 32%
    16:00 +39°C° 0 mm 3 m/S 755 mmHg 37%
    17:00 +38°C° 0 mm 3 m/S 755 mmHg 41%
    18:00 +37°C° 0 mm 3 m/S 756 mmHg 45%
    19:00 +37°C° 0 mm 3 m/S 756 mmHg 47%
    20:00 +36°C° 0 mm 3 m/S 756 mmHg 49%
    21:00 +36°C° 0 mm 3 m/S 756 mmHg 51%
    22:00 +35°C° 0 mm 2 m/S 756 mmHg 52%
    23:00 +35°C° 0 mm 2 m/S 756 mmHg 53%
    Mehr zeigen